Location: Unspecified
(0.0000°N, 0.0000°E)
Time: 22:50:49
(UTC+00:00)

deb Blok Kosmos - Pass Details

Date: 08 December 2025
Orbit: 1262 x 1713 km, 55.4° (Epoch: 19 January)

Event Time Altitude Azimuth Distance (km) Brightness Sun altitude
Rises 20:57:49 0° 208° (SSW) 4,520 ? -41.9°
Reaches altitude 10° 21:00:40 10° 206° (SSW) 3,599 ? -42.5°
Enters shadow 21:06:36 48° 196° (SSW) 1,941 ? -43.8°
